Epoch 2018 Aug. 30.0 TT = JDT 2458360.5
T 2018 Aug. 26.00689 TT MPCW
q 2.4544438 (2000.0) P Q
n 0.13144874 Peri. 283.55482 +0.97228322 -0.19238738
a 3.8308789 Node 87.65877 +0.23016404 +0.88749145
e 0.3593001 Incl. 7.64145 -0.04110774 +0.41874339
P 7.50
From 334 observations 2003 Aug. 1-2018 Sept. 19, mean residual 0".6.